SCP
1 1 1 1 1 1 0 0 0 0 1 1 1 1 1 1 1 1 1 0 0 1 1 1 1 1 1 1 1 0 0 0 0 0 0 0 0 0 0 0 0 1 1
1 1 1 1 1 0 0 0 0 0 1 1 1 1 1 1 1 1 0 0 0 0 0 1 1 1 1 1 1 0 0 0 0 0 0 0 0 0 0 0 1 1 1
1 1 1 1 0 0 0 0 0 0 1 1 1 1 1 1 0 0 0 0 0 0 0 0 0 0 1 1 1 0 0 0 0 0 0 0 0 0 0 0 1 1 1
0 0 0 0 0 0 0 0 0 0 1 1 1 1 0 0 0 0 0 0 0 0 0 0 0 0 0 0 0 0 0 0 0 0 0 0 0 0 0 0 1 1 1
1 0 0 0 0 0 0 0 0 0 0 1 1 1 0 0 0 0 0 0 0 0 0 0 0 0 0 0 0 0 0 0 0 0 0 0 0 0 0 0 0 0 0
1 1 0 0 0 0 0 0 0 0 0 0 0 0 0 0 0 0 0 0 0 0 0 0 0 0 0 0 0 0 0 0 0 0 0 0 0 0 0 0 0 0 0
1 1 0 0 0 0 0 0 0 0 0 0 0 0 0 0 0 0 0 0 0 0 0 0 0 0 0 0 0 0 0 0 0 0 0 0 0 0 0 0 0 0 0
1 1 0 0 0 1 1 1 1 0 0 0 0 0 0 0 0 0 0 0 0 0 0 0 0 0 0 0 0 0 0 0 0 0 0 0 0 0 0 0 0 0 0
1 1 0 0 1 1 1 1 1 0 0 0 0 0 0 0 0 0 0 0 0 0 0 0 0 0 0 0 0 0 0 0 0 0 0 0 0 0 0 0 0 0 0
1 1 0 1 1 1 1 1 0 0 0 0 0 0 0 0 0 0 0 0 0 0 0 0 0 0 0 0 0 0 0 0 0 0 0 0 0 0 0 0 0 0 0
1 1 1 1 1 0 0 0 0 0 0 0 0 0 0 0 0 0 0 0 0 0 0 0 0 0 0 0 0 0 0 0 0 0 0 0 0 0 0 0 0 0 0
0 0 1 1 1 0 0 0 0 0 0 0 0 0 0 0 0 0 0 0 0 0 0 0 0 0 0 0 0 0 0 0 0 0 0 0 0 0 0 0 0 0 0
0 0 1 1 1 0 0 0 0 0 0 0 0 0 0 0 0 0 0 0 0 0 0 0 0 0 0 0 0 0 0 0 0 0 0 0 0 0 0 0 0 0 0
0 0 0 1 0 0 0 0 0 0 0 0 0 0 0 0 0 0 0 0 0 0 0 0 0 0 0 0 0 0 0 0 0 0 0 0 0 0 0 0 0 0 0
0 0 0 0 0 0 0 0 0 0 0 0 0 0 0 0 0 0 0 0 0 0 0 0 0 0 0 0 0 0 0 0 0 0 0 0 0 0 0 0 0 0 0
0 0 0 0 0 0 0 0 0 0 0 0 0 0 0 0 0 0 0 0 0 0 0 0 0 0 0 0 0 0 0 0 0 0 0 0 0 0 0 0 0 0 0
0 0 0 0 0 0 0 0 0 0 0 0 0 0 0 0 0 0 0 0 0 0 0 0 0 0 0 0 0 0 0 0 0 0 0 0 0 0 0 0 0 0 0
0 0 0 0 0 0 0 0 0 0 0 0 0 0 0 0 0 0 0 0 0 0 0 0 0 0 0 0 0 0 0 0 0 0 0 0 0 0 0 0 0 0 0
0 0 0 0 0 0 0 0 0 0 0 0 0 0 0 0 0 0 0 0 0 0 0 0 0 0 0 0 0 0 0 0 0 0 0 0 0 0 0 0 0 0 0
0 0 0 0 0 0 0 0 0 0 0 0 0 0 0 0 0 1 0 0 0 0 0 0 0 0 0 0 0 0 0 0 0 0 0 0 0 0 0 0 0 0 0
0 0 0 0 0 0 0 0 0 0 0 0 0 0 0 1 1 1 1 0 0 0 0 0 0 0 0 0 0 0 0 0 0 0 0 0 0 0 0 0 0 0 0
0 0 0 0 0 0 0 0 0 0 0 0 0 0 1 1 1 1 1 1 0 0 0 0 0 0 0 0 0 0 0 0 0 0 0 0 0 0 0 0 0 0 0
0 0 0 0 0 0 0 0 0 0 0 0 0 0 1 1 1 1 1 1 1 0 0 0 0 0 0 0 0 0 0 0 0 0 0 0 0 0 0 0 0 0 0
0 0 0 0 0 0 0 0 0 0 0 0 0 0 0 0 1 1 1 1 1 1 0 0 0 0 0 0 0 0 0 0 0 0 0 0 0 0 0 0 0 0 0
0 0 0 0 0 0 0 0 0 0 0 0 0 0 0 0 0 0 1 1 1 0 0 0 0 0 0 0 0 0 0 0 0 0 0 0 0 0 0 0 0 0 0
0 0 0 0 0 0 0 0 0 0 0 0 0 0 0 0 0 0 0 0 0 0 0 0 0 0 0 0 0 0 0 0 0 0 0 0 0 0 0 0 0 0 0
Wind_Speed
8 8 7 6 5 6 6 6 6 5 4 2 1 1 1 0 1 1 2 1 2 3 3 3 3 3 2 3 3 3 3 3 2 2 2 2 1 1 0 0 1 1 1
9 8 7 6 5 5 5 5 5 5 5 3 2 1 1 0 2 1 2 2 3 3 3 3 2 2 2 3 3 3 2 2 2 1 1 1 2 2 0 0 0 0 1
9 8 7 7 5 5 5 4 4 5 5 4 2 1 2 1 1 1 1 1 1 2 2 3 3 3 2 1 2 2 2 2 3 1 1 0 1 2 1 0 0 1 0
6 7 7 7 6 5 5 4 4 4 5 5 3 2 1 1 1 1 1 0 1 1 1 2 3 3 2 2 3 2 2 2 2 2 1 1 0 0 2 2 1 0 1
6 7 6 6 6 5 4 4 4 4 5 4 4 2 1 1 1 1 1 0 0 0 0 1 2 2 2 2 2 2 2 1 2 2 2 2 1 1 1 1 1 1 0
6 6 6 6 5 5 4 4 3 4 4 4 3 3 2 1 1 1 0 1 1 1 0 0 1 1 1 2 1 1 2 1 2 2 1 1 1 1 1 0 1 0 1
7 7 6 6 5 4 4 4 4 4 4 3 3 3 3 2 2 1 1 1 1 0 0 1 0 1 1 2 2 2 2 1 1 1 1 1 1 1 1 0 1 1 1
7 7 6 5 5 5 4 3 4 3 3 3 2 2 2 2 1 1 1 1 1 0 1 1 0 0 1 2 2 2 2 2 1 2 1 1 1 1 0 0 0 1 1
7 7 7 6 5 5 4 3 3 3 3 3 3 2 2 1 1 1 1 0 1 0 1 1 1 0 0 1 1 1 2 2 2 2 2 1 1 1 0 0 0 1 0
7 7 6 5 5 4 4 4 3 3 3 2 2 2 2 2 1 1 1 1 2 1 1 2 2 1 1 1 1 1 2 2 2 1 2 1 1 1 0 1 1 1 1
7 6 5 5 5 4 4 3 3 2 2 2 2 1 2 2 2 2 1 2 2 2 2 2 1 1 1 1 1 2 1 2 2 2 1 1 1 1 1 1 1 1 1
7 6 5 5 4 4 3 3 3 2 2 1 1 1 1 1 2 2 2 2 2 2 2 2 2 2 1 1 1 2 2 2 2 2 2 2 1 1 1 1 1 1 1
7 6 5 5 4 3 3 2 2 2 2 1 0 0 0 1 1 1 1 2 2 3 2 2 2 2 2 2 2 2 2 3 3 2 2 2 2 2 2 1 1 1 1
7 6 5 4 3 3 3 2 2 2 2 2 1 0 1 1 1 1 1 2 2 3 3 2 2 2 2 2 1 2 3 3 3 3 2 2 2 2 2 2 2 2 2
6 6 4 4 3 3 2 2 2 2 2 2 1 0 1 1 1 1 1 2 2 3 3 3 2 2 2 1 2 3 4 4 3 3 3 3 3 3 2 1 1 1 1
6 6 4 4 3 2 2 2 1 1 2 2 1 1 1 1 1 1 2 2 2 2 3 3 3 3 2 1 1 2 4 4 4 4 3 3 4 5 6 5 4 3 2
6 5 4 3 2 2 2 2 2 2 2 2 1 1 0 1 1 2 2 2 2 2 3 3 3 3 2 2 3 4 4 5 5 4 4 4 3 4 4 6 7 7 8
5 4 3 2 2 2 2 2 2 2 3 2 1 1 1 1 1 2 2 2 2 3 3 3 4 3 3 4 4 5 5 5 5 4 4 4 3 3 3 3 4 5 6
5 4 3 2 2 2 2 2 2 2 2 2 1 1 1 1 2 2 2 2 3 3 3 3 4 4 4 5 5 4 4 4 5 5 4 4 3 3 3 3 4 4 5
4 3 3 3 3 3 3 2 2 3 2 2 2 2 2 2 2 2 2 2 3 4 4 4 4 4 4 5 6 5 3 4 5 4 4 5 4 4 4 4 4 5 4
5 4 3 3 3 3 2 2 3 2 2 2 2 2 2 3 2 2 2 3 3 3 4 5 5 4 5 5 6 6 3 4 4 4 3 3 6 6 6 6 5 6 5
4 3 3 3 2 2 2 2 2 2 2 2 2 3 3 3 2 2 3 3 3 3 4 4 4 3 3 3 5 7 7 6 4 5 3 3 6 7 8 7 7 9 6
3 3 2 2 1 2 2 2 2 2 2 2 3 3 3 2 2 2 3 3 3 2 3 3 3 4 3 3 6 7 8 8 5 5 6 7 9 8 7 9 10 7 4
3 2 1 1 1 1 1 1 2 2 3 3 3 3 3 3 3 2 2 3 3 3 3 3 4 4 4 3 2 3 4 6 6 6 7 9 9 8 7 7 7 6 5
2 1 1 1 1 1 1 1 2 3 4 4 3 3 3 3 3 3 3 4 4 4 5 4 4 4 5 5 6 5 5 4 5 5 5 5 4 5 5 5 5 5 5
1 1 1 0 1 2 1 2 2 3 4 4 4 3 3 3 3 4 4 6 7 9 10 10 9 7 8 9 10 10 11 10 10 7 6 6 6 6 6 6 6 5 5
Wind_Direction
151 145 146 144 145 135 130 130 137 132 119 101 91 88 86 27 74 67 62 20 23 17 8 0 4 8 6 350 357 352 340 332 335 345 335 324 288 116 145 312 333 3 56
143 145 143 142 141 129 128 132 132 129 123 126 121 124 117 126 115 81 61 26 27 16 3 3 353 0 357 2 352 348 347 326 336 346 354 343 353 352 140 207 206 58 47
143 146 146 142 138 134 137 136 135 133 129 133 113 83 73 352 87 110 96 49 32 28 13 355 352 347 359 358 336 356 356 323 323 355 31 13 327 314 320 298 84 83 71
136 142 147 146 148 142 139 141 135 136 133 132 119 125 144 112 109 100 117 196 137 60 22 349 339 342 352 359 354 20 343 334 325 330 330 303 109 97 333 331 9 75 77
131 137 140 142 139 136 137 132 127 121 118 124 141 168 120 90 80 77 102 297 167 173 123 3 335 337 346 359 4 356 349 344 333 326 327 337 339 281 163 303 319 359 21
127 126 128 126 123 124 123 118 115 118 125 142 157 167 156 159 130 109 3 284 247 222 188 211 315 337 349 342 342 327 335 327 329 325 330 343 342 332 4 304 289 256 255
139 134 130 130 129 128 131 134 131 136 144 166 175 170 166 193 187 172 217 262 284 257 292 354 339 357 347 334 341 338 320 313 332 318 314 323 314 321 353 27 320 326 265
134 132 135 138 139 139 148 148 147 154 162 182 177 172 172 179 145 191 247 239 267 280 54 313 331 6 340 337 351 333 327 337 333 317 310 292 307 322 357 131 64 345 322
122 122 127 130 130 137 149 149 154 161 172 189 186 187 182 158 158 232 269 318 298 294 348 312 304 262 260 316 344 322 324 331 327 317 318 307 286 294 328 344 153 155 319
114 115 118 122 125 125 132 137 151 168 171 180 195 184 173 167 183 236 251 302 289 296 283 285 287 269 224 223 224 285 302 314 301 288 300 310 297 298 257 245 266 209 180
107 106 107 107 110 115 125 136 145 156 152 172 190 177 184 196 208 216 218 241 259 258 257 266 285 294 272 252 237 244 257 277 285 282 260 252 260 283 280 247 251 260 166
104 102 103 104 102 110 123 132 143 141 140 169 181 184 176 199 237 234 228 246 257 260 261 258 252 271 278 274 263 262 257 248 260 267 266 255 238 245 263 259 246 249 227
111 105 101 99 97 98 102 106 110 118 124 130 137 159 200 224 253 263 260 271 276 273 273 270 264 261 264 263 269 271 265 253 242 242 246 249 233 238 229 222 233 248 250
113 111 111 109 107 103 98 98 102 113 121 129 146 194 303 302 288 295 287 291 298 298 297 293 286 279 282 287 302 297 283 270 254 237 226 229 219 234 242 230 232 231 238
114 111 113 113 112 108 106 103 108 118 119 120 127 112 317 323 324 324 314 302 297 301 304 303 300 297 292 319 355 327 309 300 282 260 231 218 205 204 216 227 245 253 241
115 114 114 115 122 120 113 99 95 96 97 93 83 66 349 353 345 332 322 307 295 296 305 302 297 292 301 341 305 295 300 300 293 285 262 226 212 209 218 224 219 211 221
118 114 115 109 112 105 103 96 78 74 91 86 53 48 344 345 330 323 315 302 293 285 284 282 282 276 268 250 268 277 280 279 279 281 279 274 235 206 212 225 231 234 233
115 109 102 96 93 92 90 93 86 74 67 58 27 14 2 345 329 306 295 291 295 289 270 269 273 265 254 238 245 270 268 271 271 268 267 269 256 232 223 220 222 229 230
109 102 90 81 73 66 70 77 83 79 67 35 351 343 332 311 299 294 285 280 288 289 284 275 269 266 256 238 237 245 267 271 272 269 270 271 262 252 242 240 243 242 237
97 93 84 69 60 50 47 45 49 56 46 13 343 334 326 304 283 280 286 283 275 270 277 280 270 266 260 248 240 227 252 268 273 267 257 257 257 275 249 238 242 245 245
96 90 81 68 49 35 40 38 32 28 8 346 327 313 307 291 279 282 285 284 279 280 277 278 271 263 261 248 240 231 241 259 276 275 261 248 239 249 259 260 247 240 248
101 96 88 75 54 31 26 30 23 1 348 333 312 298 293 296 308 294 286 285 281 280 280 281 284 275 270 262 252 241 243 261 273 277 271 262 254 252 254 254 255 255 252
111 97 92 90 71 38 20 6 347 336 325 316 305 295 293 294 298 296 293 292 283 277 283 286 288 291 285 268 256 248 251 262 268 276 279 278 277 270 256 248 252 253 241
118 115 109 93 52 17 353 335 332 321 309 300 298 299 302 308 310 296 273 275 276 270 273 279 281 284 282 278 276 271 268 264 264 268 275 276 270 258 256 252 245 234 226
130 128 114 105 306 309 320 336 335 330 317 309 310 311 315 311 298 286 274 271 260 255 255 258 262 270 273 269 276 282 280 275 271 279 273 263 259 247 242 238 230 223 223
130 132 120 261 292 310 330 348 347 334 324 322 321 314 308 304 300 294 292 274 270 274 267 261 262 267 264 269 270 271 273 271 271 277 265 256 250 246 242 237 230 221 219